www.pogodaiklimat.ru

Погода и климат >> Архив погоды >> Китай >> Хэйлунцзян >> Харбин


АРХИВ ПОГОДЫ в Харбине

Время (UTC), дата Ветер
(напр.,м/с)
 
Видим.   Явления Облачность Т
(С)
Тd
(С)
f
(%)
Тe
(С)
Тes
(С)
Комфортность P
(гПа)
Po
(гПа)
Тmin
(С)
Tmax
(С)
R
(мм)
R24
(мм)
S
(см)
03 17.07 ЮЗ 4 27 км {дождь} 10/10 1000 м
[]
+25.5 +21.8 80 +33 +33 очень
душно
1005.7 989.4
06 17.07 З 3 30 км {дождь} 4/4 1000 м
[]
+28.3 +19.5 59 +34 +41 очень
душно
1004.9 991.3 +21.7
09 17.07 З 4 28 км 8/8 1000 м
[]
+26.8 +21.6 73 +34 +35 очень
душно
1004.5 988.3
12 17.07 ЮЗ 2 6000 м дымка {дождь} ясно +23.8 +22.2 91 +31 +31 очень
душно
1005.6 991.9
15 17.07 ЮЗ 2 3800 м дымка н/о +22.4 +21.6 95 +30 +30 очень
душно
1006.2 989.7
18 17.07 З 2 2500 м слаб. дождь ?/? +21.1 +20.8 98 +26 +26 душно 1005.2 991.6 +28.8
21 17.07 Ю 1 2800 м дымка н/о +21.7 +21.4 98 +28 +28 душно 1005.8 989.3
00 18.07 ЮЗ 2 9000 м 4/4 1000 м
[]
+24.8 +20.9 79 +31 +37 очень
душно
1005.8 992.2
03 18.07 ЮЗ 4 12 км 5/5 1000 м
[]
+27.6 +20.2 64 +34 +40 очень
душно
1005.0 988.8
06 18.07 С 10
{18}
22 км 10/10 1000 м
[]
+21.4 +17.0 76 +25 +25 комфорт 1005.8 992.0 +21.0
09 18.07 З 2
{18}
14 км сильн. дождь 9/9 1000 м
[]
+19.6 +19.1 97 +23 +23 комфорт 1005.5 988.9
12 18.07 В 1 13 км {дождь} 9/9
[]
+19.1 +18.6 97 +22 +22 комфорт 1005.0 991.3 17
15 18.07 Ю 2 2000 м дымка н/о +18.4 +18.1 98 +20 +20 прохладно 1005.9 989.2
18 18.07 Ю 1 2800 м слаб. дождь ?/? +18.8 +18.5 98 +21 +21 комфорт 1005.6 991.8 +29.8 0.0
21 18.07 ЮВ 1 4400 м дымка н/о +19.2 +18.9 98 +22 +22 комфорт 1006.1 989.4
00 19.07 Ю 2 10 км 10/10
[]
+22.8 +21.1 90 +30 +30 очень
душно
1006.7 992.9 0.0
03 19.07 Ю 3 6000 м мгла 10/10 1000 м
[]
+27.3 +22.7 76 +36 +36 очень
душно
1005.9 989.7
06 19.07 Ю 2 10 км 9/9 1000 м
[]
+31.1 +23.7 65 +42 +44 опасность
перегрева
1004.9 991.3 +18.1
09 19.07 Ю 3 25 км 9/9 1000 м
[]
+28.9 +20.9 62 +36 +36 очень
душно
1004.7 988.6
12 19.07 Ю 2 8000 м 6/6
[]
+25.4 +22.9 86 +34 +34 очень
душно
1005.3 991.7
15 19.07 Ю 1 4200 м дымка н/о +22.9 +22.2 96 +31 +31 очень
душно
1005.8 989.3
18 19.07 Ю 1 2300 м в посл. час дождь ?/? +22.7 +22.2 97 +31 +31 очень
душно
1005.1 991.6 +31.4
21 19.07 ЮВ 1 2400 м дымка н/о +23.0 +22.3 96 +31 +31 очень
душно
1005.4 988.9
00 20.07 ЮВ 2 9000 м 9/9
[]
+27.7 +23.5 78 +38 +39 очень
душно
1004.9 991.4
03 20.07 ЮВ 4 13 км 9/9
[]
+30.3 +23.0 65 +40 +42 очень
душно
1004.1 988.1
06 20.07 Ю 3 18 км 10/10 1500 м
[]
+30.0 +23.0 66 +40 +40 очень
душно
1002.7 989.2 +22.6
09 20.07 Ю 3 22 км 9/9 1500 м
[]
+31.0 +22.3 60 +40 +40 очень
душно
1002.0 986.0
12 20.07 Ю 1 11 км {дождь} 9/9 1500 м
[]
+27.3 +24.4 84 +38 +38 очень
душно
1002.2 988.7
15 20.07 В 1 3900 м дымка н/о +26.2 +24.8 92 +37 +37 очень
душно
1001.3 985.1
18 20.07 ЮВ 2 10 км слаб. дождь ?/? +25.0 +23.4 91 +34 +34 очень
душно
1001.0 987.6 +31.6
21 20.07 Ю 1 25 км слаб. дождь н/о +25.2 +21.9 82 +32 +32 очень
душно
1001.4 985.1
00 21.07 Ю 3 30 км 9/9
[]
+27.6 +21.4 69 +35 +36 очень
душно
1001.5 988.1
03 21.07 Ю 5 30 км слаб. дождь 10/10 1000 м
[]
+26.6 +21.8 75 +34 +34 очень
душно
1001.9 985.7
06 21.07 Ю 2 30 км слаб. дождь 10/10 1000 м
[]
+25.0 +23.1 89 +33 +33 очень
душно
1001.8 988.2 +24.5 0.3
09 21.07 З 2 23 км слаб. дождь 10/10 1000 м
[]
+23.3 +22.6 96 +32 +32 очень
душно
1001.5 985.1
12 21.07 ЮЗ 1 2700 м слаб. дождь 10/10 1000 м
[]
+22.8 +22.5 98 +31 +31 очень
душно
1001.6 988.1 9
15 21.07 Ю 1 н/о дождь н/о +22.0 +21.7 98 +29 +29 очень
душно
1001.6 985.2
18 21.07 В 1 7000 м слаб. дождь ?/? +21.1 +20.8 98 +26 +26 душно 1001.1 987.5 +28.7 10
21 21.07 Ю 1 30 км н/о +20.8 +20.3 97 +27 +27 душно 1000.8 984.3
00 22.07 З 1 29 км в посл. час дождь 10/10 1000 м
[]
+22.3 +20.8 91 +29 +29 очень
душно
1000.7 987.0 0.5
03 22.07 З 3 16 км 10/10 1000 м
[]
+24.9 +22.0 84 +32 +32 очень
душно
999.7 983.4
06 22.07 ЮЗ 2 28 км 8/8 1000 м
[]
+28.5 +23.0 72 +38 +41 очень
душно
998.6 985.1 +20.7
09 22.07 СЗ 3 30 км 1/1 1000 м
[]
+28.7 +19.1 56 +34 +36 очень
душно
998.5 982.5
12 22.07 З 1 30 км ясно +22.6 +21.2 92 +30 +30 очень
душно
1000.0 986.3
15 22.07 ЮВ 1 8000 м н/о +21.3 +21.0 98 +27 +27 душно 999.6 983.1
18 22.07 В 1 8000 м н/о +20.9 +20.6 98 +27 +27 душно 998.8 985.3 +29.2
21 22.07 ЮЗ 1 25 км н/о +22.2 +21.0 93 +29 +29 очень
душно
998.3 981.9
00 23.07 ЮЗ 4 4600 м 10/10 300 м
[]
+25.7 +22.8 84 +34 +34 очень
душно
999.5 985.9
03 23.07 СЗ 4 18 км слаб. дождь ясно +23.6 +22.8 95 +31 +43 очень
душно
999.6 983.3
06 23.07 Ю 2 30 км в посл. час дождь 10/10 1500 м
[]
+26.0 +21.9 78 +33 +33 очень
душно
1000.6 987.0 +20.7 36
09 23.07 С 3 21 км слаб. дождь 10/10 1500 м
[]
+23.6 +20.5 83 +29 +29 душно 1000.6 984.3
12 23.07 ЮВ 2 7000 м слаб. дождь 10/10 1500 м
[]
+21.4 +20.7 96 +27 +27 душно 1001.5 987.9 2
15 23.07 ЮВ 2 10 км слаб. дождь н/о +21.2 +20.5 96 +26 +26 душно 1000.6 984.1
18 23.07 В 3 19 км в посл. час дождь ?/? +21.4 +20.7 96 +27 +27 душно 998.8 985.2 +26.6 0.5
21 23.07 В 2 2600 м дождь н/о +21.8 +21.5 98 +28 +28 душно 996.5 980.1

 

Местоположение метеостанции Харбин (Хэйлунцзян, Китай): широта 45.75 долгота 126.76 высота над уровнем моря 143 м.

В архиве по умолчанию представлена погода в Харбине за последнюю неделю. Архивные данные за месяц целиком и за предыдущие месяцы, начиная с января 2011 года, Вы можете получить, выбрав интересующий диапазон дат из раскрывающегося списка и нажав кнопку "Ввод!".


*Определитесь, кто Вы:
робот инопланетянин человек

Внимание! Время в таблицах - всемирное. Для получения местного времени необходимо прибавить поправку, которая равна 8 ч.

Смотрите также архив погоды в соседних городах и на ближайших метеорологических станциях:

Погода в Шанчжи (Хэйлунцзян, Китай) (111 км)
Погода в Аньда (Хэйлунцзян, Китай) (132 км)
Погода в Тунхэ (Хэйлунцзян, Китай) (155 км)
Погода в Цянь Горлос (Гирин, Китай) (166 км)
Погода в Хайлуне (Хэйлунцзян, Китай) (187 км)
Погода в Чанчуне (Гирин, Китай) (239 км)
Погода в Муданьцзяне (Хэйлунцзян, Китай) (259 км)
Погода в Кэшане (Хэйлунцзян, Китай) (264 км)
Погода в Тайлае (Хэйлунцзян, Китай) (268 км)
Погода в Ичунь (Хэйлунцзян, Китай) (273 км)

Пояснения к столбцам:

Ветер - указаны скорость ветра в м/с - средняя за 10 мин, порывы в срок и между сроками (в фигурных скобках) и направление, откуда дует ветер: С - северный, СВ - северо-восточный, В - восточный, ЮВ - юго-восточный, Ю - южный, ЮЗ - юго-западный, З - западный, СЗ - северо-западный.
Видимость - горизонтальная дальность видимости в метрах или километрах. При видимости от 1 до 10 км при отсутствии осадков обычно наблюдается дымка, при ухудшении видимости до 1 км и менее - туман. В сухую погоду видимость может ухудшаться дымом, пылью или мглою.
Явления - указаны атмосферные явления, наблюдавшиеся в срок или в последний час перед сроком; фигурными скобками обозначены явления, наблюдавшиеся между сроками (за 1-3 часа до срока); квадратными скобками обозначены град или гололедные отложения с указанием их диаметра в мм.
Облачность - указаны через наклонную черту общая и нижняя облачность в баллах и высота нижней границы облаков в метрах; квадратными скобками обозначены формы облаков: Ci - перистые, Cs - перисто-слоистые, Cc - перисто-кучевые, Ac - высококучевые, As - высокослоистые, Sc - слоисто-кучевые, Ns - слоисто-дождевые, Cu - кучевые, Cb - кучево-дождевые. Подробнее классификацию облаков см. в Атласе облаков (PDF).
T - Температура воздуха - температура, измеренная на высоте 2 м над землей.
Td - Температура точки росы - температура, при понижении до которой содержащийся в воздухе водяной пар достигнет насыщения.
f - Относительная влажность воздуха - влажноcть воздуха, измеренная на высоте 2 м над землей.
Te - Эффективная температура - температура, которую ощущает одетый по сезону человек в тени. Характеристика душности погоды. При расчете учитывается влияние влажности воздуха и скорости ветра на теплоощущения человека.
Tes - Эффективная температура на солнце - температура, которую ощущает человек, с поправкой на солнечный нагрев. Характеристика знойности погоды. Зависит от высоты солнца над горизонтом, облачности и скорости ветра. Ночью, в пасмурную погоду, а также при ветре 12 м/с и более поправка равна нулю.
P - Атмосферное давление - приведенное к уровню моря атмосферное давление.
Po - Атмосферное давление - измеренное на уровне метеостанции атмосферное давление.
Tmin - Минимальная температура - минимум температуры воздуха на высоте 2 м над землей.
Tmax - Максимальная температура - максимум температуры воздуха на высоте 2 м над землей.
R - Количество осадков - Количество выпавших осадков за период времени, мм. При наведении курсора мыши на число - период времени, за который выпало указанное количество осадков.
R24 - Количество осадков - Количество выпавших осадков за 24 часа, мм.
S - Снежный покров - Высота снежного покрова, см. При наведении курсора мыши на число - состояние снежного покрова и степень покрытия местности в баллах.